Погода в Ливанах

Латвия     56°21′27″N   26°10′39″E
темп.,
°C
ветер,
м/с
пор.,
м/с
влажн.,
%
обл.,
%
осадки,
мм/ч
давл.,
гПа
погр.,
м
21 января, пт
пт2123:00−2юз41196100 1.5 984661
02:00−1зсз51195100 2.8 9851038
05:00−2сз51293100 0.7 9881180
08:00−3сз61389100 1.1 990895
11:00−2сз61290100 0.6 9931128
14:00−2сз61289100 1.0 9951273
17:00−3сз61289100 0.3 9971103
20:00−4сз51292100 0.6 9981055
22 января, сб
сб2223:00−3с4995100 0.9 1001689
02:00−5с4118859 1.2 1004535
05:00−5с41189100 0.0 1007618
08:00−6ссз4128999 0.1 1010606
11:00−3ссз51185100 0.1 1013898
14:00−3ссз5985100 0.1 1014999
17:00−4ссз51187100 0.3 1016875
20:00−5с499098 0.4 1018694
23 января, вс
вс2323:00−8с259514 0.0 1021126
02:00−8ссз279795 0.1 1023263
05:00−9ссз259883 0.0 1025116
08:00−10с119983 0.1 102711
11:00−7всв118893 0.0 1029175
14:00−5ююв1182100 0.0 1030282
17:00−8юз119648 0.0 103210
20:00−10ююз129859 0.0 103336
24 января, пн
пн2423:00−9ю259674 0.0 1034115
02:00−8ююз27915 0.0 1035210
05:00−9ю289465 0.0 1034187
08:00−9ю39925 0.0 1034211
11:00−6ю410825 0.0 1033318
14:00−4ююз412775 0.0 1031467
17:00−5ююз5138192 0.0 1029441
20:00−4ююз51485100 0.0 1027500
25 января, вт
вт2523:00−3ююз51391100 0.1 1025520
02:00−2ююз51393100 0.3 1022578
05:00−1юз41295100 0.3 1020550
08:000зюз41093100 0.4 1019586
11:00+1з4894100 0.1 1018694
14:00+1зсз49845 0.3 1018930
17:00−2сз411845 0.0 1019579
20:00−3зсз411865 0.0 1020482